Weather Roundup
Issued by NWS Chicago, IL

Home | Current Version | Previous Version | Text Only | Print | Product List | Glossary On
Versions: 1 2 3 4 5 6 7 8 9 10 11 12 13 14 15 16 17 18 19 20 21 22 23 24 25 26 27 28 29 30 31 32 33 34 35 36 37 38 39 40 41 42 43 44 45 46 47 48 49 50
000
NZUS59 KLOT 260509
HRRLOT

CHICAGO AREA WEATHER ROUNDUP
NATIONAL WEATHER SERVICE CHICAGO/ROMEOVILLE IL
1200 AM CDT FRI MAY 26 2017

NOTE: "FAIR" INDICATES FEW OR NO CLOUDS BELOW 12,000 FEET WITH NO
SIGNIFICANT WEATHER AND/OR OBSTRUCTIONS TO VISIBILITY.

* THESE STATIONS ARE NOT UNDER NWS QUALITY CONTROL. THEY ALSO MAY NOT
  REPORT WEATHER SUCH AS PRECIPITATION OR FOG.

ILZ005-006-012>014-019>023-260600-
NORTHEAST ILLINOIS

CITY           SKY/WX    TMP DP  RH WIND       PRES   REMARKS
OHARE          PTCLDY    55  49  80 CALM      29.78R
MIDWAY         PTCLDY    55  50  83 CALM      29.78R
AURORA         CLOUDY    57  54  89 S5        29.79R
LANSING*       CLEAR     50  50 100 CALM      29.80R
JOLIET*        CLOUDY    57  54  91 CALM      29.79R
WAUKEGAN       CLEAR     51  51 100 CALM      29.78R
DUPAGE AIRPORT CLEAR     56  53  90 CALM      29.78R
WHEELING       CLEAR     52  50  93 CALM      29.79R
KANKAKEE*      CLEAR     53  50  89 CALM      29.80S
MORRIS*        CLOUDY    58  54  85 CALM      29.78R
LEWIS AIRPORT* CLOUDY    56  55  96 SE3       29.79R
NORTHERLY ISL    N/A     56  50  80 N2          N/A
$$

WIZ051-052-058>065-066-070>072-260600-
SOUTHEAST WISCONSIN

CITY           SKY/WX    TMP DP  RH WIND       PRES   REMARKS
MILWAUKEE      CLEAR     54  51  90 CALM      29.78R
KENOSHA*       CLEAR     50  49  96 W3        29.78R
RACINE*        CLEAR     52  49  89 CALM      29.79R
WAUKESHA       CLEAR     50  50 100 CALM      29.80R
WEST BEND      PTCLDY    48  48 100 CALM      29.78R FOG
$$

INZ001>003-010>013-019-020-260600-
NORTHWEST INDIANA

CITY           SKY/WX    TMP DP  RH WIND       PRES   REMARKS
GARY*          CLEAR     52  51  95 CALM      29.80R FOG
MICHIGAN CITY* NOT AVBL
RENSSELAER*    NOT AVBL
VALPARAISO     CLEAR     52  50  93 NW7       29.79R
$$

LMZ740>746-260600-
SOUTHERN LAKE MICHIGAN

STATION/POSITION TIME  SKY/WX   TEMP WIND        PRES    VSBY
                                AIR  DIR/SP/G
                 (UTC)          (F)  (DEG/KT/KT) (MB)    (MI)
HARRISON CRIB    0440            56  320/  5/  6   N/A
BURNHAM HARBOR   0500            57   CALM  /  7   N/A
CALUMET HARBOR   0448            56  310/  3/  5 1008.4R
BURNS HARBOR     0440            54  280/  5/  6 1009.1R
MICHIGAN CITY    0440            52  240/ 10/ 11   N/A
$$

ABBREVIATIONS USED IN REMARKS
   TC - TEMPERATURE IN CELSIUS
  WCI - WIND CHILL INDEX
   HX - HEAT INDEX
  VSB - VISIBILITY
$$




USA.gov is the U.S. government's official web portal to all federal, state and local government web resources and services.